Location: London
(51.5074°N, 0.1278°W)
Time: 08:02:43
(UTC+00:00)

TIGRISAT - Pass Details

Date: 04 October 2020
Orbit: 606 x 688 km, 97.7° (Epoch: 30 October)

Event Time Altitude Azimuth Distance (km) Brightness Sun altitude
Rises 06:12:40 0° 105° (ESE) 2,877 ? -9.2°
Reaches altitude 10° 06:16:12 10° 74° (ENE) 1,992 ? -8.7°
Maximum altitude 06:17:44 12° 53° (NE) 1,886 ? -8.4°
Drops below altitude 10° 06:19:16 10° 32° (NNE) 2,011 ? -8.2°
Sets 06:22:53 0° 1° (N) 2,944 ? -7.6°
